| time (UTC) | temp F | wind direction | speed MPH | gust MPH | rain 1hr in | rain 24hr in | rain mn in | humidity % | barometer mb |
| 20260509054012 | 48 | 355 | 0.0 | 0.0 | 0.00 | 0.02 | 0.01 | 91 | 1008.9 |
| 20260509053506 | 48 | 355 | 0.0 | 0.0 | 0.00 | 0.02 | 0.01 | 91 | 1008.9 |
| 20260509053019 | 48 | 355 | 0.0 | 0.0 | 0.00 | 0.02 | 0.01 | 91 | 1009.0 |
| 20260509052508 | 48 | 355 | 0.0 | 0.0 | 0.00 | 0.02 | 0.01 | 91 | 1009.0 |
| 20260509052004 | 48 | 355 | 0.0 | 0.0 | 0.00 | 0.02 | 0.01 | 91 | 1009.2 |
| 20260509051510 | 48 | 355 | 0.0 | 0.0 | 0.00 | 0.02 | 0.01 | 91 | 1009.4 |
| 20260509051007 | 48 | 355 | 0.0 | 0.0 | 0.00 | 0.02 | 0.01 | 91 | 1009.6 |
| 20260509050505 | 48 | 355 | 0.0 | 0.0 | 0.00 | 0.02 | 0.01 | 91 | 1009.6 |
| 20260509050034 | 48 | 355 | 0.0 | 0.0 | 0.01 | 0.03 | 0.01 | 91 | 1009.6 |
| 20260509045507 | 48 | 355 | 0.0 | 0.0 | 0.01 | 0.03 | 0.01 | 91 | 1009.6 |
| 20260509045004 | 48 | 355 | 0.0 | 0.0 | 0.01 | 0.03 | 0.01 | 90 | 1009.6 |
| 20260509044519 | 48 | 355 | 0.0 | 1.0 | 0.01 | 0.03 | 0.01 | 91 | 1009.7 |
| 20260509044015 | 48 | 355 | 0.0 | 1.0 | 0.01 | 0.03 | 0.01 | 91 | 1009.7 |
| 20260509043503 | 48 | 360 | 0.0 | 1.0 | 0.01 | 0.03 | 0.01 | 91 | 1009.5 |
| 20260509043034 | 48 | 360 | 0.0 | 0.0 | 0.01 | 0.03 | 0.01 | 90 | 1009.5 |
| 20260509042509 | 48 | 360 | 0.0 | 0.0 | 0.01 | 0.03 | 0.01 | 90 | 1009.5 |
| 20260509042006 | 48 | 360 | 0.0 | 0.0 | 0.01 | 0.03 | 0.01 | 90 | 1009.5 |
| 20260509041508 | 49 | 360 | 0.0 | 0.0 | 0.01 | 0.03 | 0.01 | 90 | 1009.4 |
| 20260509041005 | 49 | 360 | 0.0 | 0.0 | 0.01 | 0.03 | 0.01 | 90 | 1009.5 |
| 20260509040507 | 49 | 360 | 0.0 | 0.0 | 0.01 | 0.03 | 0.01 | 90 | 1009.6 |
| 20260509040014 | 49 | 360 | 0.0 | 0.0 | 0.00 | 0.02 | 0.00 | 89 | 1009.6 |
| 20260509035506 | 49 | 360 | 0.0 | 0.0 | 0.00 | 0.02 | 0.02 | 89 | 1009.5 |
| 20260509035004 | 49 | 360 | 0.0 | 1.0 | 0.00 | 0.02 | 0.02 | 89 | 1009.6 |
| 20260509034513 | 49 | 360 | 0.0 | 1.0 | 0.00 | 0.02 | 0.02 | 89 | 1009.7 |
| 20260509034008 | 49 | 360 | 0.0 | 1.0 | 0.00 | 0.02 | 0.02 | 89 | 1009.8 |
| 20260509033512 | 49 | 360 | 0.0 | 1.0 | 0.00 | 0.02 | 0.02 | 89 | 1009.7 |
| 20260509033012 | 49 | 360 | 0.0 | 1.0 | 0.00 | 0.02 | 0.02 | 89 | 1009.5 |
| 20260509032512 | 49 | 360 | 0.0 | 1.0 | 0.00 | 0.02 | 0.02 | 88 | 1009.5 |
| 20260509032010 | 49 | 360 | 0.0 | 0.0 | 0.00 | 0.02 | 0.02 | 88 | 1009.3 |
| 20260509031513 | 48 | 360 | 0.0 | 0.0 | 0.00 | 0.02 | 0.02 | 88 | 1009.3 |
| 20260509031007 | 48 | 360 | 0.0 | 0.0 | 0.00 | 0.02 | 0.02 | 88 | 1009.4 |
| 20260509030505 | 48 | 360 | 0.0 | 0.0 | 0.00 | 0.02 | 0.02 | 87 | 1009.3 |
| 20260509030019 | 48 | 360 | 0.0 | 0.0 | 0.00 | 0.02 | 0.02 | 87 | 1009.3 |
| 20260509025507 | 48 | 360 | 0.0 | 0.0 | 0.00 | 0.02 | 0.02 | 87 | 1009.5 |
| 20260509025006 | 48 | 360 | 0.0 | 0.0 | 0.00 | 0.02 | 0.02 | 87 | 1009.5 |
| 20260509024516 | 48 | 360 | 0.0 | 0.0 | 0.00 | 0.02 | 0.02 | 86 | 1009.5 |
| 20260509024005 | 49 | 360 | 0.0 | 0.0 | 0.00 | 0.02 | 0.02 | 85 | 1009.7 |
| 20260509023506 | 49 | 360 | 0.0 | 0.0 | 0.00 | 0.02 | 0.02 | 85 | 1009.6 |
| 20260509023024 | 49 | 360 | 0.0 | 0.0 | 0.00 | 0.02 | 0.02 | 84 | 1009.6 |
| 20260509022507 | 50 | 360 | 0.0 | 0.0 | 0.00 | 0.02 | 0.02 | 83 | 1009.7 |
| 20260509022009 | 50 | 360 | 0.0 | 0.0 | 0.00 | 0.02 | 0.02 | 83 | 1009.8 |
| 20260509021512 | 50 | 360 | 0.0 | 0.0 | 0.00 | 0.02 | 0.02 | 83 | 1009.6 |
| 20260509021004 | 51 | 360 | 0.0 | 0.0 | 0.00 | 0.02 | 0.02 | 82 | 1009.4 |
| 20260509020507 | 51 | 360 | 0.0 | 1.0 | 0.00 | 0.03 | 0.02 | 81 | 1009.3 |
| 20260509020017 | 51 | 360 | 0.0 | 3.0 | 0.00 | 0.03 | 0.02 | 80 | 1009.3 |
| 20260509015507 | 51 | 348 | 0.0 | 3.0 | 0.00 | 0.03 | 0.02 | 79 | 1009.2 |
| 20260509015010 | 51 | 302 | 0.0 | 2.0 | 0.00 | 0.03 | 0.02 | 80 | 1008.7 |
| 20260509014509 | 51 | 329 | 0.0 | 2.0 | 0.00 | 0.03 | 0.02 | 79 | 1008.9 |
| 20260509014007 | 51 | 338 | 0.0 | 2.0 | 0.00 | 0.03 | 0.02 | 78 | 1009.5 |
| 20260509013506 | 52 | 325 | 0.0 | 2.0 | 0.00 | 0.03 | 0.02 | 77 | 1009.5 |
| 20260509013016 | 52 | 327 | 0.0 | 2.0 | 0.00 | 0.03 | 0.02 | 77 | 1009.6 |
| 20260509012506 | 52 | 346 | 0.0 | 5.0 | 0.00 | 0.03 | 0.02 | 77 | 1009.6 |
| 20260509012009 | 52 | 24 | 0.0 | 5.0 | 0.00 | 0.03 | 0.02 | 75 | 1009.4 |
| 20260509011510 | 52 | 5 | 0.0 | 3.0 | 0.00 | 0.03 | 0.02 | 73 | 1009.2 |
| 20260509011008 | 52 | 5 | 0.0 | 1.0 | 0.00 | 0.03 | 0.02 | 75 | 1009.0 |
| 20260509010506 | 53 | 5 | 0.0 | 2.0 | 0.00 | 0.03 | 0.02 | 71 | 1008.9 |
| 20260509010021 | 53 | 12 | 0.0 | 2.0 | 0.00 | 0.03 | 0.02 | 73 | 1008.9 |
| 20260509005508 | 53 | 43 | 0.0 | 2.0 | 0.00 | 0.03 | 0.02 | 70 | 1008.7 |
| 20260509005009 | 53 | 329 | 0.0 | 2.0 | 0.00 | 0.03 | 0.02 | 69 | 1008.7 |
| 20260509004521 | 53 | 346 | 0.0 | 3.0 | 0.00 | 0.03 | 0.02 | 70 | 1008.8 |
| 20260509004007 | 54 | 321 | 0.0 | 3.0 | 0.00 | 0.03 | 0.02 | 69 | 1008.7 |
| 20260509003505 | 54 | 329 | 0.0 | 5.0 | 0.00 | 0.03 | 0.02 | 69 | 1008.8 |
| 20260509003017 | 54 | 360 | 1.0 | 5.0 | 0.00 | 0.03 | 0.02 | 70 | 1008.8 |
| 20260509002509 | 54 | 355 | 1.0 | 4.0 | 0.00 | 0.03 | 0.02 | 67 | 1008.8 |
| 20260509002012 | 54 | 5 | 0.0 | 3.0 | 0.00 | 0.03 | 0.02 | 68 | 1008.8 |
| 20260509001516 | 54 | 360 | 1.0 | 3.0 | 0.00 | 0.03 | 0.02 | 67 | 1008.8 |
| 20260509001007 | 54 | 339 | 1.0 | 6.0 | 0.00 | 0.03 | 0.02 | 66 | 1008.7 |
| 20260509000506 | 55 | 327 | 1.0 | 12.0 | 0.00 | 0.03 | 0.02 | 67 | 1008.7 |
| 20260509000028 | 55 | 5 | 4.0 | 12.0 | 0.00 | 0.03 | 0.02 | 65 | 1008.7 |
| 20260508235510 | 55 | 39 | 2.0 | 10.0 | 0.00 | 0.03 | 0.02 | 65 | 1008.6 |
| 20260508235007 | 55 | 355 | 2.0 | 13.0 | 0.00 | 0.03 | 0.02 | 65 | 1008.5 |
| 20260508234516 | 55 | 28 | 6.0 | 13.0 | 0.00 | 0.03 | 0.02 | 65 | 1008.4 |
| 20260508234012 | 55 | 65 | 1.0 | 11.0 | 0.00 | 0.03 | 0.02 | 65 | 1008.4 |
| 20260508233507 | 55 | 311 | 4.0 | 9.0 | 0.00 | 0.03 | 0.02 | 65 | 1008.3 |
| 20260508233016 | 55 | 32 | 4.0 | 14.0 | 0.00 | 0.03 | 0.02 | 65 | 1008.4 |
| 20260508232509 | 55 | 16 | 5.0 | 14.0 | 0.00 | 0.03 | 0.02 | 65 | 1008.5 |
| 20260508232007 | 55 | 59 | 5.0 | 14.0 | 0.00 | 0.03 | 0.02 | 66 | 1008.5 |
| 20260508231516 | 55 | 17 | 3.0 | 11.0 | 0.00 | 0.03 | 0.02 | 67 | 1008.4 |
| 20260508231009 | 56 | 180 | 2.0 | 9.0 | 0.00 | 0.03 | 0.02 | 67 | 1008.3 |
| 20260508230506 | 56 | 343 | 3.0 | 8.0 | 0.00 | 0.03 | 0.02 | 67 | 1008.2 |
| 20260508230020 | 56 | 309 | 2.0 | 12.0 | 0.00 | 0.03 | 0.02 | 68 | 1008.3 |
| 20260508225510 | 56 | 304 | 4.0 | 12.0 | 0.00 | 0.03 | 0.02 | 67 | 1008.1 |
| 20260508225010 | 56 | 331 | 1.0 | 13.0 | 0.00 | 0.03 | 0.02 | 68 | 1008.2 |
| 20260508224543 | 56 | 348 | 3.0 | 13.0 | 0.00 | 0.03 | 0.02 | 67 | 1008.1 |
| 20260508224008 | 57 | 302 | 3.0 | 12.0 | 0.00 | 0.03 | 0.02 | 66 | 1008.1 |
| 20260508223504 | 57 | 330 | 3.0 | 12.0 | 0.00 | 0.03 | 0.02 | 67 | 1008.2 |
| 20260508223005 | 56 | 5 | 4.0 | 12.0 | 0.00 | 0.03 | 0.02 | 68 | 1008.2 |
| 20260508222506 | 56 | 28 | 2.0 | 5.0 | 0.00 | 0.03 | 0.02 | 70 | 1008.1 |
| 20260508222002 | 56 | 336 | 2.0 | 5.0 | 0.00 | 0.03 | 0.02 | 71 | 1008.3 |
| 20260508221518 | 56 | 277 | 1.0 | 4.0 | 0.00 | 0.03 | 0.02 | 71 | 1008.2 |
| 20260508221008 | 56 | 321 | 1.0 | 4.0 | 0.00 | 0.03 | 0.02 | 74 | 1008.3 |
| 20260508220503 | 55 | 331 | 1.0 | 3.0 | 0.00 | 0.03 | 0.02 | 74 | 1008.4 |
| 20260508220030 | 55 | 299 | 0.0 | 2.0 | 0.00 | 0.03 | 0.02 | 75 | 1008.5 |
| 20260508215503 | 54 | 59 | 0.0 | 4.0 | 0.00 | 0.03 | 0.02 | 75 | 1008.5 |
| 20260508215002 | 54 | 314 | 0.0 | 5.0 | 0.00 | 0.03 | 0.02 | 77 | 1008.5 |
| 20260508214504 | 54 | 350 | 2.0 | 5.0 | 0.00 | 0.03 | 0.02 | 75 | 1008.6 |
| 20260508214006 | 54 | 338 | 2.0 | 6.0 | 0.00 | 0.03 | 0.02 | 76 | 1008.6 |
| 20260508213503 | 54 | 322 | 2.0 | 6.0 | 0.01 | 0.03 | 0.02 | 75 | 1008.4 |
| 20260508213006 | 54 | 5 | 1.0 | 5.0 | 0.01 | 0.03 | 0.02 | 77 | 1008.3 |
| 20260508212504 | 54 | 341 | 0.0 | 4.0 | 0.01 | 0.03 | 0.02 | 76 | 1008.2 |
| 20260508212004 | 53 | 33 | 1.0 | 6.0 | 0.01 | 0.03 | 0.02 | 77 | 1008.3 |
| 20260508211508 | 53 | 50 | 1.0 | 6.0 | 0.01 | 0.03 | 0.02 | 77 | 1008.4 |
| 20260508211002 | 53 | 11 | 1.0 | 5.0 | 0.01 | 0.03 | 0.02 | 77 | 1008.6 |
| 20260508210503 | 53 | 10 | 0.0 | 5.0 | 0.01 | 0.03 | 0.02 | 78 | 1008.5 |
| 20260508210007 | 52 | 5 | 3.0 | 7.0 | 0.01 | 0.03 | 0.02 | 78 | 1008.5 |
| 20260508205506 | 52 | 332 | 2.0 | 7.0 | 0.01 | 0.03 | 0.02 | 78 | 1008.6 |
| 20260508205007 | 52 | 28 | 1.0 | 12.0 | 0.01 | 0.03 | 0.02 | 80 | 1008.6 |
| 20260508204506 | 52 | 350 | 2.0 | 12.0 | 0.01 | 0.03 | 0.02 | 76 | 1008.8 |
| 20260508204006 | 53 | 19 | 3.0 | 15.0 | 0.01 | 0.03 | 0.02 | 74 | 1009.0 |
| 20260508203510 | 55 | 28 | 7.0 | 17.0 | 0.00 | 0.02 | 0.01 | 71 | 1009.1 |
| 20260508203008 | 56 | 19 | 7.0 | 17.0 | 0.00 | 0.02 | 0.01 | 64 | 1009.0 |
| 20260508202507 | 57 | 58 | 3.0 | 15.0 | 0.00 | 0.02 | 0.01 | 59 | 1008.6 |
| 20260508202006 | 58 | 5 | 5.0 | 16.0 | 0.00 | 0.02 | 0.01 | 54 | 1008.3 |
| 20260508201508 | 58 | 71 | 5.0 | 16.0 | 0.00 | 0.02 | 0.01 | 53 | 1008.2 |
| 20260508201007 | 58 | 360 | 3.0 | 10.0 | 0.00 | 0.02 | 0.01 | 54 | 1008.1 |
| 20260508200504 | 57 | 42 | 3.0 | 10.0 | 0.00 | 0.02 | 0.01 | 56 | 1008.2 |
| 20260508200026 | 57 | 286 | 0.0 | 2.0 | 0.00 | 0.02 | 0.01 | 61 | 1008.2 |
| 20260508195506 | 57 | 278 | 0.0 | 2.0 | 0.00 | 0.02 | 0.01 | 63 | 1008.3 |
| 20260508195004 | 57 | 315 | 0.0 | 2.0 | 0.00 | 0.02 | 0.01 | 59 | 1008.3 |
| 20260508194514 | 57 | 28 | 0.0 | 2.0 | 0.00 | 0.02 | 0.01 | 62 | 1008.5 |
| 20260508194011 | 57 | 173 | 0.0 | 2.0 | 0.00 | 0.02 | 0.01 | 62 | 1008.3 |
| 20260508193504 | 57 | 180 | 0.0 | 2.0 | 0.00 | 0.02 | 0.01 | 64 | 1008.3 |
| 20260508193012 | 57 | 178 | 0.0 | 2.0 | 0.00 | 0.02 | 0.01 | 60 | 1008.5 |
| 20260508192508 | 57 | 141 | 0.0 | 2.0 | 0.00 | 0.02 | 0.01 | 63 | 1008.5 |
| 20260508192014 | 57 | 18 | 1.0 | 2.0 | 0.00 | 0.02 | 0.01 | 59 | 1008.5 |
| 20260508191508 | 57 | 139 | 0.0 | 2.0 | 0.00 | 0.02 | 0.01 | 60 | 1008.3 |
| 20260508191004 | 57 | 163 | 0.0 | 4.0 | 0.00 | 0.02 | 0.01 | 61 | 1008.3 |
| 20260508190513 | 57 | 157 | 0.0 | 6.0 | 0.00 | 0.02 | 0.01 | 62 | 1008.3 |
| 20260508190016 | 57 | 151 | 2.0 | 6.0 | 0.00 | 0.02 | 0.01 | 62 | 1008.2 |
| 20260508185505 | 57 | 147 | 0.0 | 5.0 | 0.00 | 0.02 | 0.01 | 62 | 1008.3 |
| 20260508185003 | 58 | 115 | 1.0 | 5.0 | 0.00 | 0.02 | 0.01 | 62 | 1008.5 |
| 20260508184506 | 58 | 142 | 1.0 | 8.0 | 0.00 | 0.02 | 0.01 | 65 | 1008.4 |
| 20260508184006 | 58 | 124 | 1.0 | 8.0 | 0.00 | 0.02 | 0.01 | 64 | 1008.6 |
| 20260508183507 | 58 | 157 | 2.0 | 6.0 | 0.00 | 0.02 | 0.01 | 54 | 1008.8 |
| 20260508183014 | 59 | 50 | 0.0 | 10.0 | 0.00 | 0.02 | 0.01 | 50 | 1008.6 |
| 20260508182507 | 59 | 78 | 2.0 | 10.0 | 0.00 | 0.02 | 0.01 | 51 | 1008.5 |
| 20260508182003 | 60 | 73 | 3.0 | 9.0 | 0.00 | 0.02 | 0.01 | 49 | 1008.6 |
| 20260508181518 | 60 | 35 | 2.0 | 11.0 | 0.00 | 0.02 | 0.01 | 50 | 1008.4 |
| 20260508181007 | 61 | 333 | 3.0 | 13.0 | 0.00 | 0.02 | 0.01 | 49 | 1008.6 |
| 20260508180505 | 61 | 5 | 6.0 | 14.0 | 0.00 | 0.02 | 0.01 | 46 | 1008.8 |
| 20260508180010 | 62 | 316 | 3.0 | 16.0 | 0.00 | 0.02 | 0.01 | 50 | 1008.9 |
| 20260508175507 | 62 | 360 | 5.0 | 16.0 | 0.00 | 0.02 | 0.01 | 49 | 1008.9 |
| 20260508175007 | 62 | 344 | 6.0 | 13.0 | 0.00 | 0.02 | 0.01 | 55 | 1008.9 |
| 20260508174512 | 62 | 17 | 2.0 | 12.0 | 0.00 | 0.02 | 0.01 | 59 | 1008.9 |
| 20260508174009 | 61 | 42 | 2.0 | 9.0 | 0.00 | 0.02 | 0.01 | 58 | 1009.0 |
| 20260508173507 | 60 | 5 | 3.0 | 9.0 | 0.00 | 0.02 | 0.01 | 56 | 1009.1 |
| 20260508173019 | 59 | 67 | 1.0 | 12.0 | 0.00 | 0.02 | 0.01 | 60 | 1009.1 |
| 20260508172507 | 58 | 63 | 2.0 | 12.0 | 0.00 | 0.02 | 0.01 | 58 | 1009.2 |
| 20260508172007 | 57 | 53 | 3.0 | 14.0 | 0.00 | 0.02 | 0.01 | 54 | 1009.3 |
| 20260508171528 | 57 | 5 | 3.0 | 14.0 | 0.00 | 0.02 | 0.01 | 52 | 1009.4 |
| 20260508171010 | 57 | 327 | 3.0 | 14.0 | 0.00 | 0.02 | 0.01 | 51 | 1009.4 |
| 20260508170505 | 57 | 39 | 4.0 | 14.0 | 0.00 | 0.02 | 0.01 | 50 | 1009.3 |
| 20260508170010 | 58 | 19 | 3.0 | 13.0 | 0.00 | 0.02 | 0.01 | 51 | 1009.3 |
| 20260508165507 | 58 | 11 | 3.0 | 13.0 | 0.00 | 0.02 | 0.01 | 50 | 1009.2 |
| 20260508165005 | 58 | 40 | 3.0 | 16.0 | 0.00 | 0.02 | 0.01 | 49 | 1009.3 |
| 20260508164512 | 58 | 251 | 4.0 | 16.0 | 0.00 | 0.02 | 0.01 | 52 | 1009.2 |
| 20260508164007 | 57 | 345 | 3.0 | 14.0 | 0.00 | 0.02 | 0.01 | 50 | 1009.4 |
| 20260508163507 | 58 | 37 | 4.0 | 15.0 | 0.00 | 0.02 | 0.01 | 49 | 1009.3 |
| 20260508163018 | 58 | 5 | 6.0 | 15.0 | 0.00 | 0.02 | 0.01 | 48 | 1009.3 |
| 20260508162506 | 59 | 59 | 6.0 | 15.0 | 0.00 | 0.02 | 0.01 | 49 | 1009.2 |
| 20260508162008 | 58 | 28 | 4.0 | 15.0 | 0.00 | 0.02 | 0.01 | 52 | 1009.5 |
| 20260508161531 | 58 | 355 | 1.0 | 10.0 | 0.00 | 0.02 | 0.01 | 52 | 1009.4 |
| 20260508161007 | 58 | 331 | 1.0 | 13.0 | 0.00 | 0.02 | 0.01 | 52 | 1009.6 |
| 20260508160508 | 58 | 244 | 6.0 | 13.0 | 0.00 | 0.02 | 0.01 | 50 | 1009.4 |
| 20260508160027 | 58 | 33 | 5.0 | 16.0 | 0.00 | 0.02 | 0.01 | 52 | 1009.5 |
| 20260508155506 | 58 | 352 | 8.0 | 17.0 | 0.00 | 0.02 | 0.01 | 50 | 1009.5 |
| 20260508155006 | 59 | 5 | 9.0 | 17.0 | 0.00 | 0.02 | 0.01 | 48 | 1009.6 |
| 20260508154518 | 59 | 325 | 4.0 | 13.0 | 0.00 | 0.02 | 0.01 | 52 | 1009.5 |
| 20260508154008 | 58 | 311 | 4.0 | 16.0 | 0.00 | 0.02 | 0.01 | 52 | 1009.5 |
| 20260508153509 | 58 | 340 | 6.0 | 16.0 | 0.00 | 0.02 | 0.01 | 49 | 1009.6 |
| 20260508153016 | 59 | 352 | 7.0 | 17.0 | 0.00 | 0.02 | 0.01 | 51 | 1009.7 |
| 20260508152507 | 59 | 322 | 5.0 | 17.0 | 0.00 | 0.02 | 0.01 | 52 | 1009.5 |
| 20260508152009 | 59 | 335 | 5.0 | 16.0 | 0.00 | 0.02 | 0.01 | 55 | 1009.5 |
| 20260508151516 | 59 | 28 | 9.0 | 18.0 | 0.00 | 0.02 | 0.01 | 50 | 1009.4 |
| 20260508151012 | 59 | 35 | 6.0 | 24.0 | 0.00 | 0.02 | 0.01 | 53 | 1009.4 |
| 20260508150512 | 58 | 343 | 6.0 | 24.0 | 0.00 | 0.02 | 0.01 | 51 | 1009.4 |
| 20260508150023 | 59 | 57 | 7.0 | 19.0 | 0.00 | 0.02 | 0.01 | 50 | 1009.4 |
| 20260508145507 | 58 | 20 | 5.0 | 15.0 | 0.00 | 0.02 | 0.01 | 51 | 1009.1 |
| 20260508145007 | 58 | 355 | 6.0 | 15.0 | 0.00 | 0.02 | 0.01 | 54 | 1009.3 |
| 20260508144535 | 58 | 340 | 3.0 | 15.0 | 0.00 | 0.02 | 0.01 | 53 | 1009.1 |
| 20260508144007 | 57 | 5 | 5.0 | 13.0 | 0.00 | 0.02 | 0.01 | 53 | 1009.3 |
| 20260508143510 | 57 | 31 | 4.0 | 13.0 | 0.00 | 0.02 | 0.01 | 53 | 1009.4 |
| 20260508143029 | 57 | 344 | 6.0 | 16.0 | 0.00 | 0.02 | 0.01 | 54 | 1009.4 |
| 20260508142506 | 56 | 360 | 3.0 | 16.0 | 0.00 | 0.02 | 0.01 | 54 | 1009.6 |
| 20260508142008 | 56 | 14 | 8.0 | 16.0 | 0.00 | 0.02 | 0.01 | 53 | 1009.7 |
| 20260508141523 | 55 | 5 | 6.0 | 13.0 | 0.00 | 0.02 | 0.01 | 54 | 1009.7 |
| 20260508141011 | 55 | 269 | 5.0 | 12.0 | 0.00 | 0.02 | 0.01 | 54 | 1009.7 |
| 20260508140509 | 55 | 342 | 4.0 | 11.0 | 0.00 | 0.02 | 0.01 | 55 | 1009.8 |
| 20260508140034 | 55 | 302 | 4.0 | 9.0 | 0.00 | 0.02 | 0.01 | 56 | 1009.7 |
| 20260508135512 | 54 | 318 | 5.0 | 12.0 | 0.00 | 0.02 | 0.01 | 57 | 1009.8 |
| 20260508135008 | 54 | 351 | 6.0 | 12.0 | 0.00 | 0.02 | 0.01 | 55 | 1009.8 |
| 20260508134520 | 53 | 58 | 3.0 | 12.0 | 0.00 | 0.02 | 0.01 | 58 | 1009.8 |
| 20260508134009 | 53 | 19 | 5.0 | 11.0 | 0.00 | 0.02 | 0.01 | 58 | 1009.9 |
| 20260508133502 | 53 | 321 | 2.0 | 11.0 | 0.00 | 0.02 | 0.01 | 59 | 1010.0 |
| 20260508133003 | 53 | 296 | 2.0 | 10.0 | 0.00 | 0.02 | 0.01 | 59 | 1009.9 |
| 20260508132502 | 52 | 322 | 4.0 | 10.0 | 0.00 | 0.02 | 0.01 | 60 | 1010.0 |
| 20260508132002 | 52 | 340 | 5.0 | 10.0 | 0.00 | 0.02 | 0.01 | 61 | 1010.0 |
| 20260508131513 | 51 | 336 | 4.0 | 10.0 | 0.00 | 0.02 | 0.01 | 63 | 1010.1 |
| 20260508131010 | 51 | 5 | 1.0 | 9.0 | 0.00 | 0.02 | 0.01 | 66 | 1010.2 |
| 20260508130502 | 50 | 344 | 5.0 | 8.0 | 0.00 | 0.02 | 0.01 | 63 | 1010.2 |
| 20260508130020 | 50 | 261 | 3.0 | 8.0 | 0.00 | 0.02 | 0.01 | 68 | 1010.2 |
| 20260508125503 | 49 | 298 | 2.0 | 8.0 | 0.00 | 0.02 | 0.01 | 68 | 1010.2 |
| 20260508125007 | 48 | 5 | 1.0 | 8.0 | 0.00 | 0.02 | 0.01 | 72 | 1010.2 |
| 20260508124504 | 47 | 331 | 1.0 | 4.0 | 0.00 | 0.02 | 0.01 | 74 | 1010.2 |
| 20260508124002 | 46 | 319 | 2.0 | 5.0 | 0.00 | 0.02 | 0.01 | 75 | 1010.3 |
| 20260508123502 | 45 | 321 | 2.0 | 5.0 | 0.00 | 0.02 | 0.01 | 76 | 1010.4 |
| 20260508123009 | 43 | 355 | 1.0 | 4.0 | 0.00 | 0.02 | 0.01 | 77 | 1010.4 |
| 20260508122502 | 43 | 336 | 0.0 | 4.0 | 0.00 | 0.02 | 0.01 | 78 | 1010.3 |
| 20260508122003 | 42 | 327 | 1.0 | 4.0 | 0.00 | 0.02 | 0.01 | 77 | 1010.3 |
| 20260508121515 | 41 | 331 | 1.0 | 5.0 | 0.00 | 0.02 | 0.01 | 78 | 1010.3 |
| 20260508121003 | 41 | 333 | 2.0 | 5.0 | 0.00 | 0.02 | 0.01 | 79 | 1010.3 |
| 20260508120506 | 40 | 340 | 0.0 | 0.0 | 0.00 | 0.02 | 0.01 | 81 | 1010.2 |
| 20260508120009 | 40 | 336 | 0.0 | 0.0 | 0.00 | 0.02 | 0.01 | 83 | 1010.2 |
| 20260508115503 | 40 | 344 | 0.0 | 0.0 | 0.00 | 0.02 | 0.01 | 87 | 1010.4 |
| 20260508115006 | 39 | 337 | 0.0 | 0.0 | 0.00 | 0.02 | 0.01 | 86 | 1010.4 |
| 20260508114530 | 39 | 337 | 0.0 | 0.0 | 0.00 | 0.02 | 0.01 | 88 | 1010.5 |
| 20260508114006 | 39 | 60 | 0.0 | 0.0 | 0.00 | 0.02 | 0.01 | 90 | 1010.6 |
| 20260508113503 | 39 | 60 | 0.0 | 0.0 | 0.00 | 0.02 | 0.01 | 89 | 1010.6 |
| 20260508113007 | 38 | 60 | 0.0 | 0.0 | 0.00 | 0.02 | 0.01 | 89 | 1010.6 |
| 20260508112503 | 38 | 5 | 0.0 | 0.0 | 0.00 | 0.02 | 0.01 | 90 | 1010.6 |
| 20260508112003 | 37 | 335 | 0.0 | 0.0 | 0.00 | 0.02 | 0.01 | 91 | 1010.5 |
| 20260508111508 | 36 | 9 | 0.0 | 0.0 | 0.00 | 0.02 | 0.01 | 94 | 1010.5 |
| 20260508111004 | 36 | 9 | 0.0 | 0.0 | 0.00 | 0.02 | 0.01 | 95 | 1010.6 |
| 20260508110504 | 35 | 15 | 0.0 | 0.0 | 0.00 | 0.02 | 0.01 | 95 | 1010.6 |
| 20260508110013 | 34 | 5 | 0.0 | 0.0 | 0.00 | 0.02 | 0.01 | 94 | 1010.6 |
| 20260508105503 | 34 | 5 | 0.0 | 0.0 | 0.00 | 0.02 | 0.01 | 94 | 1010.4 |
| 20260508105007 | 34 | 5 | 0.0 | 0.0 | 0.00 | 0.02 | 0.01 | 94 | 1010.3 |
| 20260508104516 | 34 | 5 | 0.0 | 0.0 | 0.00 | 0.02 | 0.01 | 94 | 1010.3 |
| 20260508104003 | 34 | 5 | 0.0 | 0.0 | 0.00 | 0.02 | 0.01 | 94 | 1010.3 |
| 20260508103503 | 34 | 5 | 0.0 | 0.0 | 0.00 | 0.02 | 0.01 | 94 | 1010.1 |
| 20260508103006 | 34 | 5 | 0.0 | 0.0 | 0.00 | 0.02 | 0.01 | 94 | 1010.1 |
| 20260508102508 | 34 | 5 | 0.0 | 0.0 | 0.00 | 0.02 | 0.01 | 94 | 1010.0 |
| 20260508102011 | 34 | 5 | 0.0 | 0.0 | 0.00 | 0.02 | 0.01 | 94 | 1010.1 |
| 20260508101508 | 33 | 5 | 0.0 | 0.0 | 0.00 | 0.02 | 0.01 | 94 | 1010.0 |
| 20260508101003 | 33 | 5 | 0.0 | 0.0 | 0.00 | 0.02 | 0.01 | 94 | 1010.0 |
| 20260508100503 | 33 | 5 | 0.0 | 0.0 | 0.00 | 0.02 | 0.01 | 94 | 1010.0 |
| 20260508100009 | 33 | 5 | 0.0 | 0.0 | 0.00 | 0.02 | 0.01 | 93 | 1009.8 |
| 20260508095508 | 33 | 5 | 0.0 | 0.0 | 0.00 | 0.02 | 0.01 | 93 | 1009.8 |
| 20260508095004 | 33 | 5 | 0.0 | 0.0 | 0.00 | 0.02 | 0.01 | 93 | 1009.8 |
| 20260508094521 | 33 | 5 | 0.0 | 0.0 | 0.00 | 0.02 | 0.01 | 93 | 1009.9 |
| 20260508094007 | 33 | 5 | 0.0 | 0.0 | 0.00 | 0.02 | 0.01 | 93 | 1009.9 |
| 20260508093503 | 33 | 5 | 0.0 | 0.0 | 0.00 | 0.02 | 0.01 | 93 | 1009.7 |
| 20260508093012 | 33 | 5 | 0.0 | 0.0 | 0.00 | 0.02 | 0.01 | 93 | 1009.7 |
| 20260508092504 | 33 | 5 | 0.0 | 0.0 | 0.00 | 0.02 | 0.01 | 93 | 1009.7 |
| 20260508092004 | 33 | 5 | 0.0 | 0.0 | 0.00 | 0.02 | 0.01 | 93 | 1009.7 |
| 20260508091515 | 33 | 5 | 0.0 | 0.0 | 0.00 | 0.02 | 0.01 | 93 | 1009.7 |
| 20260508091008 | 33 | 5 | 0.0 | 0.0 | 0.00 | 0.02 | 0.01 | 93 | 1009.8 |
| 20260508090517 | 33 | 5 | 0.0 | 0.0 | 0.00 | 0.02 | 0.01 | 94 | 1009.8 |
| 20260508090018 | 33 | 5 | 0.0 | 0.0 | 0.00 | 0.02 | 0.01 | 93 | 1009.8 |
| 20260508085504 | 33 | 5 | 0.0 | 0.0 | 0.00 | 0.02 | 0.01 | 93 | 1009.7 |
| 20260508085007 | 33 | 5 | 0.0 | 0.0 | 0.00 | 0.02 | 0.01 | 93 | 1009.7 |
| 20260508084515 | 33 | 5 | 0.0 | 0.0 | 0.00 | 0.02 | 0.01 | 92 | 1009.7 |
| 20260508084004 | 33 | 5 | 0.0 | 0.0 | 0.00 | 0.02 | 0.01 | 92 | 1009.7 |
| 20260508083506 | 33 | 5 | 0.0 | 0.0 | 0.00 | 0.02 | 0.01 | 92 | 1009.7 |
| 20260508083009 | 33 | 5 | 0.0 | 0.0 | 0.00 | 0.02 | 0.01 | 92 | 1009.7 |
| 20260508082510 | 34 | 5 | 0.0 | 0.0 | 0.00 | 0.02 | 0.01 | 92 | 1009.7 |
| 20260508082007 | 34 | 5 | 0.0 | 0.0 | 0.00 | 0.02 | 0.01 | 92 | 1009.7 |
| 20260508081515 | 34 | 5 | 0.0 | 0.0 | 0.00 | 0.02 | 0.01 | 92 | 1009.7 |
| 20260508081005 | 34 | 5 | 0.0 | 0.0 | 0.00 | 0.02 | 0.01 | 92 | 1009.6 |
| 20260508080507 | 34 | 5 | 0.0 | 0.0 | 0.00 | 0.02 | 0.01 | 91 | 1009.6 |
| 20260508080011 | 35 | 5 | 0.0 | 0.0 | 0.00 | 0.02 | 0.01 | 92 | 1009.6 |
| 20260508075509 | 35 | 5 | 0.0 | 0.0 | 0.00 | 0.02 | 0.01 | 92 | 1009.7 |
| 20260508075008 | 35 | 5 | 0.0 | 0.0 | 0.00 | 0.02 | 0.01 | 92 | 1009.7 |
| 20260508074516 | 35 | 5 | 0.0 | 2.0 | 0.00 | 0.02 | 0.01 | 92 | 1009.7 |
| 20260508074007 | 35 | 5 | 0.0 | 2.0 | 0.00 | 0.02 | 0.01 | 93 | 1009.6 |
| 20260508073012 | 35 | 5 | 1.0 | 3.0 | 0.00 | 0.02 | 0.01 | 93 | 1009.6 |
| 20260508072504 | 35 | 9 | 0.0 | 3.0 | 0.00 | 0.02 | 0.01 | 94 | 1009.5 |
| 20260508072009 | 35 | 360 | 0.0 | 3.0 | 0.00 | 0.02 | 0.01 | 93 | 1009.6 |
| 20260508071516 | 34 | 350 | 0.0 | 2.0 | 0.00 | 0.02 | 0.01 | 93 | 1009.6 |
| 20260508071003 | 35 | 350 | 0.0 | 2.0 | 0.00 | 0.02 | 0.01 | 93 | 1009.7 |
| 20260508070511 | 35 | 350 | 0.0 | 2.0 | 0.00 | 0.02 | 0.01 | 92 | 1009.9 |
| 20260508070017 | 35 | 325 | 0.0 | 2.0 | 0.00 | 0.02 | 0.01 | 93 | 1009.9 |
| 20260508065509 | 35 | 34 | 0.0 | 0.0 | 0.00 | 0.02 | 0.01 | 93 | 1010.0 |
| 20260508065010 | 35 | 34 | 0.0 | 0.0 | 0.00 | 0.02 | 0.01 | 93 | 1010.0 |
| 20260508064544 | 35 | 34 | 0.0 | 0.0 | 0.00 | 0.02 | 0.01 | 93 | 1010.0 |
| 20260508064010 | 35 | 34 | 0.0 | 0.0 | 0.00 | 0.02 | 0.01 | 93 | 1010.0 |
| 20260508063507 | 35 | 34 | 0.0 | 0.0 | 0.00 | 0.02 | 0.01 | 93 | 1010.0 |
| 20260508063026 | 35 | 34 | 0.0 | 0.0 | 0.00 | 0.02 | 0.01 | 93 | 1010.0 |
| 20260508062511 | 35 | 34 | 0.0 | 1.0 | 0.00 | 0.02 | 0.01 | 93 | 1010.0 |
| 20260508062010 | 35 | 34 | 0.0 | 1.0 | 0.00 | 0.02 | 0.01 | 93 | 1010.0 |
| 20260508061516 | 35 | 34 | 0.0 | 0.0 | 0.00 | 0.02 | 0.01 | 92 | 1010.0 |
| 20260508061011 | 35 | 34 | 0.0 | 0.0 | 0.00 | 0.02 | 0.01 | 92 | 1009.9 |
| 20260508060508 | 35 | 34 | 0.0 | 0.0 | 0.00 | 0.02 | 0.01 | 92 | 1010.0 |
| 20260508060019 | 36 | 34 | 0.0 | 0.0 | 0.01 | 0.02 | 0.01 | 92 | 1010.0 |
| 20260508055509 | 36 | 34 | 0.0 | 0.0 | 0.01 | 0.02 | 0.01 | 92 | 1009.9 |
| 20260508055012 | 36 | 34 | 0.0 | 0.0 | 0.01 | 0.02 | 0.01 | 91 | 1010.0 |
| 20260508054525 | 36 | 34 | 0.0 | 1.0 | 0.01 | 0.02 | 0.01 | 92 | 1010.0 |